THOR ABLESTAR DEB, 131

Orbit data source: Space-Track

THOR ABLESTAR DEB, 131 is space debris in LEO originally from a launch on Thu, 29 Jun 1961 UTC launched from the Air Force Eastern Test Range (AFETR). Debris objects in space refer to the collection of defunct objects orbiting the Earth. Examples of debris include non-operational satellites, rocket bodies, and fragments generated from explosions, collisions, or faulty payload assembly.

Loading next visibility...
THOR ABLESTAR DEB details
Identifier
131, 1961-015R
Orbit
LEO
Last TLE update7 hours ago
Origin
Flag of USUSAF SSD (US)
ManufacturerUnknown
MissionSpacecraft
Bus & MotorUnknown
MassUnknown
Launch date (UTC)
1961-06-29 (64 years ago)
Launch vehicleUnknown
Launch site
Air Force Eastern Test Range (AFETR)
Object type
Payload
Rocket body
Debris
Shape & HBRUnknown
Radar Cross SectionMedium (>0.1 m² and <1 m²)

Expand to show TLE details & history

TLE from 7 hours ago
0 THOR ABLESTAR DEB
1 00131U 61015R   25014.93236625  .00000272  00000-0  22690-3 0  9999
2 00131  66.7363 315.5339 0074179  68.9823 291.9175 14.01495419230839
Epoch: 2025-01-14T22:22Z
Definitive object data (Epoch: 2025-01-14T22:22:36.444Z)
Latitude0.00001°
Longitude-134.74991°
Altitude870.926 km
Speed7.427 km/s
True Right ascension21h 02m 08s
True Declination0° 00' 00"
Sunlit
Object was in daylight at TLE epoch
Visualization TLE readout
Latitude29.48717°
Longitude-121.48263°
Altitude847.959 km
Speed7.454 km/s
Apparent Right ascension20h 14m 30s
Apparent Declination-3° 06' 37"
Sunlit
Object is in daylight
Visualization observer readout
Local Sidereal Time06:01:58
Azimuth312.202° NW
Elevation-42.543°
Doppler factor1
Orbital elements
Apogee altitude940.906 km
Perigee altitude833.122 km
Semi-major axis7,265.151 km
Eccentricity0.0074179
Inclination66.7363°
RAAN315.5339°
Arg. of periapsis68.9823°
True anomaly291.1262°
Mean anomaly291.9175°
Eccentric anomaly291.52212°
Mean motion3.5049 °/min
BSTAR0.0002269
Orbital period102.71 mins
Loading maneuver chart data...

THOR ABLESTAR DEB Visibility forecast

Observer location: undefined°, undefined

Span
Click to sort rows by Start time (UTC) header in descending order
Start Az.
Max El. time (UTC)
Max El. Az.
Max El.
End time (UTC)
End Az.
9 mins2025-01-15 05:45:46.068Z354.462° N2025-01-15 05:49:46.068Z47.585° ENE26.842°2025-01-15 05:54:46.068Z110.409° ESE
9 mins2025-01-15 07:31:46.068Z310.51° NW2025-01-15 07:35:46.068Z244.037° WSW34.208°2025-01-15 07:40:46.068Z179.83° S
8 mins2025-01-15 20:46:46.068Z166.334° S2025-01-15 20:49:46.068Z116.343° SE31.957°2025-01-15 20:54:46.068Z45.943° ENE
8 mins2025-01-15 22:31:46.068Z253.644° W2025-01-15 22:35:46.068Z312.524° NW27.708°2025-01-15 22:39:46.068Z6.799° NNE
|